Location: DARK SKY Beskydy - Park tmavé oblohy, www.darkskybeskydy.cz
(49.4926°N, 18.5016°E)
Time: 10:56:32
(UTC+02:00)

Vanguard 1 - Pass Details

Date: 02 March 2024
Orbit: 653 x 3825 km, 34.2° (Epoch: 12 April)

Event Time Altitude Azimuth Distance (km) Brightness Sun altitude
Rises 22:28:40 0° 269° (W) 6,029 14.4 -43.3°
Reaches altitude 10° 22:32:28 10° 262° (W) 5,398 14.0 -43.6°
Enters shadow 22:44:09 37° 221° (SW) 4,454 13.0 -44.5°
Maximum altitude 22:47:54 39° 202° (SSW) 4,533 - -44.8°
Drops below altitude 10° 23:08:01 10° 143° (SE) 6,892 - -46.0°
Sets 23:13:47 0° 137° (SE) 7,789 - -46.3°
